Starlink 4264

decayed
NORAD ID: 52993 Int'l Des: 2022-076 Owner: SPXS Country: US Constellation: starlink
LEOCIRCULAR
Group

About Starlink 4264

Description loading...

Altitude History

Altitude vs Time

uPlot chart will show altitude changes over time

Two-Line Element Set

1 52993U 22076H 26031.36583726 .00123510 17937-4 20624-3 0 9997
2 52993 53.2162 247.6859 0002873 158.2213 201.8942 16.02700141197401
Epoch: Jan 31, 2026 • Age: 737 hours

Current Status

Altitude 255.1 km
Velocity 7.75 km/s
Sub-Earth Point -52.67°S, 173.6°W
Launch Date Jul 7, 2022
Age 3.6 years
Decay Date Jan 31, 2026
Type internet

Technical Details

Classification Payload
Mass 297.00 kg
Dry Mass 275.00 kg
Total Mass 297.00 kg
Length 0.20 m
Diameter 2.80 m
Span 9.00 m
Shape Box + pan
Manufacturer SPXS
Bus Type Starlink
Phase Status Reentered
Owner/State SPXS/US

Large Constellations

Loading constellations...